This is the latest recevied weather packets stored in our database for station/object KE5QKR. If no packets are shown the sender has not sent any weather packets the latest 10 day(s).
| Time | Temp. | Humidity | Pressure | Rain* | Wind** | Luminosity | Snow |
|---|---|---|---|---|---|---|---|
| 1777814809 | 18.33° C | 71% | 1020.6 hPa | 0 mm | - | 310 W/m² | - |
| 1777814506 | 17.22° C | 74% | 1020.9 hPa | 0 mm | - | 292 W/m² | - |
| 1777814203 | 17.22° C | 74% | 1020.6 hPa | 0 mm | - | 269 W/m² | - |
| 1777813900 | 16.11° C | 79% | 1020.6 hPa | 0 mm | - | 238 W/m² | - |
| 1777813597 | 16.11° C | 79% | 1020.9 hPa | 0 mm | - | 192 W/m² | - |
| 1777813295 | 15° C | 83% | 1020.6 hPa | 0 mm | - | 144 W/m² | - |
| 1777812992 | 13.33° C | 91% | 1020.8 hPa | 0 mm | - | 139 W/m² | - |
| 1777812690 | 12.78° C | 97% | 1020.6 hPa | 0 mm | - | 117 W/m² | - |
| 1777812386 | 12.22° C | 99% | 1020.7 hPa | 0 mm | - | 99 W/m² | - |
| 1777812085 | 11.11° C | 99% | 1020.5 hPa | 0 mm | - | 65 W/m² | - |
| 1777811783 | 10.56° C | 99% | 1020.5 hPa | 0 mm | - | 40 W/m² | - |
| 1777811479 | 10.56° C | 99% | 1020.4 hPa | 0 mm | - | 39 W/m² | - |
| 1777811175 | 10° C | 99% | 1020.4 hPa | 0 mm | - | 36 W/m² | - |
| 1777810873 | 10° C | 99% | 1020.4 hPa | 0 mm | - | 36 W/m² | - |
| 1777810569 | 10° C | 99% | 1020.4 hPa | 0 mm | - | 38 W/m² | - |
| 1777810266 | 9.44° C | 99% | 1020.5 hPa | 0 mm | - | 42 W/m² | - |
| 1777809962 | 8.89° C | 99% | 1020.4 hPa | 0 mm | - | 38 W/m² | - |
| 1777809660 | 8.89° C | 99% | 1020.4 hPa | 0 mm | - | 33 W/m² | - |
| 1777809358 | 8.33° C | 99% | 1020.5 hPa | 0 mm | - | 30 W/m² | - |
| 1777809055 | 7.78° C | 99% | 1020.4 hPa | 0 mm | - | 23 W/m² | - |
| 1777808752 | 7.78° C | 99% | 1020.3 hPa | 0 mm | - | 18 W/m² | - |
| 1777808449 | 7.78° C | 99% | 1020.2 hPa | 0 mm | - | 16 W/m² | - |
| 1777808147 | 7.78° C | 99% | 1020.3 hPa | 0 mm | - | 13 W/m² | - |
| 1777807845 | 7.22° C | 99% | 1020.4 hPa | 0 mm | - | 10 W/m² | - |
| 1777807543 | 7.22° C | 99% | 1020.3 hPa | 0 mm | - | 8 W/m² | - |
* Rain latest hour (hover to see other rain measurements)
** Current wind speed in m/s (hover to see current wind gust speed)